Location: *
(49.9853°N, 3.5569°E)
Time: 05:02:32
(UTC+00:00)

Cosmos 405 Rocket - Pass Details

Date: 19 December 2019
Orbit: 490 x 554 km, 81.3° (Epoch: 20 January)

Event Time Altitude Azimuth Distance (km) Brightness Sun altitude
Rises 17:28:50 0° 346° (NNW) 2,587 6.2 -15.6°
Reaches altitude 10° 17:30:57 10° 345° (NNW) 1,703 5.3 -15.9°
Maximum altitude 17:34:40 74° 261° (W) 525 2.8 -16.5°
Drops below altitude 10° 17:38:24 10° 176° (S) 1,713 5.5 -17.0°
Sets 17:40:32 0° 174° (S) 2,603 6.4 -17.4°
